sat.trackr.live / text

‹ back to catalog

STARLINK-30394

NORAD 57810 · 2023-138C

PAYLOAD ACTIVE UNKNOWN

§ Identity

Operator
Country
US
Launch date
2023-09-09
Launch site
AFETR
Launch vehicle
Mass (kg)
RCS (m²)

Purposes: comms

External: N2YO · Heavens-Above · Gunter

§ Orbital elements

Epoch: 2026-05-25T02:07:59.342592Z

Period
94.27 min
Inclination
43.0037°
Eccentricity
0.0000970
Mean motion
15.27591169 rev/d
Perigee alt
482.4 km
Apogee alt
483.7 km
Semi-major
6,861.2 km
B*
5.4084e-4
RAAN
162.6339°
Arg perigee
273.0497°
Mean anomaly
87.0243°
Rev number
15,032

§ Raw data

STARLINK-303941 57810U 23138C   26145.08888128  .00014655  00000+0  54084-3 0  99932 57810  43.0037 162.6339 0000970 273.0497  87.0243 15.27591169150329

JSON: /api/v1/satellites/57810 · /tle

For live sub-satellite position, see the globe view (requires WebGL).

§ Visibility from observer

Set your observer location to see the next 7 days of passes ≥ 10°. The values pass through the URL so the page stays shareable.

No JS? Fill the form by hand. The geolocation button needs JavaScript.